START_TIME,STEP,MOV.,A46,t_acc.,A13,t_acc.,M47,t_acc.,A17,t_acc.,A28,t_acc.,M38,t_acc.
1979-08-05 09:00:24.100 ,0,0,,0,12.,4.8,5.,4.8,,0,0.,4.8,2.,4.8
1979-08-05 09:00:28.900 ,0,0,,0,12.,4.8,2.,4.8,,0,0.,4.8,2.,4.8
1979-08-05 09:00:33.700 ,0,0,,0,13.,4.8,5.,4.8,,0,0.,4.8,4.,4.8
1979-08-05 09:00:38.500 ,0,0,,0,0.,4.8,0.,4.8,,0,1.,4.8,4.,4.8
1979-08-05 09:00:43.300 ,0,0,,0,0.,4.8,0.,4.8,,0,0.,4.8,1.,4.8
1979-08-05 09:00:48.100 ,0,0,,0,0.,4.8,0.,4.8,,0,0.,4.8,1.,4.8
1979-08-05 09:00:52.900 ,0,0,,0,0.,4.8,0.,4.8,,0,0.,4.8,8.,4.8
1979-08-05 09:00:57.700 ,0,0,,0,2.,4.8,1.,4.8,,0,0.,4.8,2.,4.8
1979-08-05 09:01:02.500 ,0,0,,0,18.,4.8,4.,4.8,,0,0.,4.8,3.,4.8
1979-08-05 09:01:07.300 ,0,0,,0,12.,4.8,4.,4.8,,0,0.,4.8,6.,4.8
1979-08-05 09:01:12.100 ,0,0,,0,13.,4.8,2.,4.8,,0,0.,4.8,3.,4.8
1979-08-05 09:01:16.900 ,0,0,,0,5.,4.8,0.,4.8,,0,0.,4.8,2.,4.8
1979-08-05 09:01:21.700 ,0,0,,0,10.,4.8,3.,4.8,,0,0.,4.8,3.,4.8
1979-08-05 09:01:26.500 ,0,0,,0,0.,4.8,0.,4.8,,0,0.,4.8,6.,4.8
1979-08-05 09:01:31.300 ,0,0,,0,0.,4.8,0.,4.8,,0,0.,4.8,3.,4.8
1979-08-05 09:01:36.100 ,1,0,,0,0.,4.8,0.,4.8,,0,0.,4.8,2.,4.8
1979-08-05 09:01:40.900 ,1,0,,0,0.,4.8,0.,4.8,,0,0.,4.8,3.,4.8
1979-08-05 09:01:45.700 ,1,0,,0,5.,4.8,1.,4.8,,0,0.,4.8,1.,4.8
1979-08-05 09:01:50.500 ,1,0,,0,15.,4.8,3.,4.8,,0,0.,4.8,5.,4.8
1979-08-05 09:01:55.300 ,1,0,,0,15.,4.8,4.,4.8,,0,0.,4.8,1.,4.8
1979-08-05 09:02:00.100 ,1,0,,0,20.,4.8,2.,4.8,,0,0.,4.8,2.,4.8
1979-08-05 09:02:04.900 ,1,0,,0,21.,4.8,5.,4.8,,0,0.,4.8,2.,4.8
1979-08-05 09:02:09.700 ,1,0,,0,12.,4.8,5.,4.8,,0,0.,4.8,3.,4.8
1979-08-05 09:02:14.500 ,1,0,,0,0.,4.8,0.,4.8,,0,0.,4.8,3.,4.8
1979-08-05 09:02:19.300 ,1,0,,0,0.,4.8,0.,4.8,,0,0.,4.8,1.,4.8
1979-08-05 09:02:24.100 ,2,0,,0,0.,4.8,0.,4.8,,0,0.,4.8,2.,4.8
1979-08-05 09:02:28.900 ,2,0,,0,0.,4.8,0.,4.8,,0,0.,4.8,1.,4.8
1979-08-05 09:02:33.700 ,2,0,,0,3.,4.8,1.,4.8,,0,0.,4.8,2.,4.8
1979-08-05 09:02:38.500 ,2,0,,0,9.,4.8,4.,4.8,,0,0.,4.8,0.,4.8
1979-08-05 09:02:43.300 ,2,0,,0,10.,4.8,2.,4.8,,0,0.,4.8,1.,4.8
1979-08-05 09:02:48.100 ,2,0,,0,7.,4.8,2.,4.8,,0,0.,4.8,3.,4.8
1979-08-05 09:02:52.900 ,2,0,,0,8.,4.8,1.,4.8,,0,0.,4.8,0.,4.8
1979-08-05 09:02:57.700 ,2,0,,0,4.,4.8,0.,4.8,,0,0.,4.8,1.,4.8
1979-08-05 09:03:02.500 ,2,0,,0,0.,4.8,0.,4.8,,0,0.,4.8,2.,4.8
1979-08-05 09:03:07.300 ,2,0,,0,1.,4.8,0.,4.8,,0,0.,4.8,2.,4.8
1979-08-05 09:03:12.100 ,3,0,,0,0.,4.8,2.,4.8,,0,0.,4.8,2.,4.8
1979-08-05 09:03:16.900 ,3,0,,0,0.,4.8,0.,4.8,,0,0.,4.8,0.,4.8
1979-08-05 09:03:21.700 ,3,0,,0,0.,4.8,0.,4.8,,0,0.,4.8,0.,4.8
1979-08-05 09:03:26.500 ,3,0,,0,2.,4.8,0.,4.8,,0,1.,4.8,0.,4.8
1979-08-05 09:03:31.300 ,3,0,,0,5.,4.8,0.,4.8,,0,0.,4.8,2.,4.8
1979-08-05 09:03:36.100 ,3,0,,0,3.,4.8,0.,4.8,,0,0.,4.8,0.,4.8
1979-08-05 09:03:40.900 ,3,0,,0,2.,4.8,0.,4.8,,0,0.,4.8,0.,4.8
1979-08-05 09:03:45.700 ,3,0,,0,1.,4.8,0.,4.8,,0,0.,4.8,0.,4.8
1979-08-05 09:03:50.500 ,3,0,,0,0.,4.8,0.,4.8,,0,0.,4.8,0.,4.8
1979-08-05 09:03:55.300 ,3,0,,0,0.,4.8,0.,4.8,,0,0.,4.8,0.,4.8
1979-08-05 09:04:00.100 ,4,0,,0,0.,4.8,0.,4.8,,0,0.,4.8,0.,4.8
1979-08-05 09:04:04.900 ,4,0,,0,0.,4.8,0.,4.8,,0,0.,4.8,0.,4.8
1979-08-05 09:04:09.700 ,4,0,,0,0.,4.8,0.,4.8,,0,0.,4.8,0.,4.8
1979-08-05 09:04:14.500 ,4,0,,0,2.,4.8,0.,4.8,,0,0.,4.8,0.,4.8
1979-08-05 09:04:19.300 ,4,0,,0,2.,4.8,0.,4.8,,0,0.,4.8,1.,4.8
1979-08-05 09:04:24.100 ,4,0,,0,4.,4.8,0.,4.8,,0,0.,4.8,0.,4.8
1979-08-05 09:04:28.900 ,4,0,,0,2.,4.8,0.,4.8,,0,0.,4.8,0.,4.8
1979-08-05 09:04:33.700 ,4,0,,0,2.,4.8,0.,4.8,,0,0.,4.8,1.,4.8
1979-08-05 09:04:38.500 ,4,0,,0,0.,4.8,0.,4.8,,0,0.,4.8,0.,4.8
1979-08-05 09:04:43.300 ,4,0,,0,1.,4.8,0.,4.8,,0,0.,4.8,0.,4.8
1979-08-05 09:04:48.100 ,5,0,,0,0.,4.8,0.,4.8,,0,0.,4.8,0.,4.8
1979-08-05 09:04:52.900 ,5,0,,0,0.,4.8,0.,4.8,,0,0.,4.8,0.,4.8
1979-08-05 09:04:57.700 ,5,0,,0,0.,4.8,0.,4.8,,0,0.,4.8,0.,4.8
1979-08-05 09:05:02.500 ,5,0,,0,3.,4.8,1.,4.8,,0,0.,4.8,0.,4.8
1979-08-05 09:05:07.300 ,5,0,,0,4.,4.8,0.,4.8,,0,0.,4.8,0.,4.8
1979-08-05 09:05:12.100 ,5,0,,0,4.,4.8,0.,4.8,,0,0.,4.8,0.,4.8
1979-08-05 09:05:16.900 ,5,0,,0,2.,4.8,0.,4.8,,0,0.,4.8,0.,4.8
1979-08-05 09:05:21.700 ,5,0,,0,1.,4.8,0.,4.8,,0,0.,4.8,0.,4.8
1979-08-05 09:05:26.500 ,5,0,,0,0.,4.8,0.,4.8,,0,0.,4.8,0.,4.8
1979-08-05 09:05:31.300 ,5,0,,0,0.,4.8,0.,4.8,,0,0.,4.8,0.,4.8
1979-08-05 09:05:36.100 ,6,0,,0,0.,4.8,0.,4.8,,0,0.,4.8,0.,4.8
1979-08-05 09:05:40.900 ,6,0,,0,1.,4.8,0.,4.8,,0,0.,4.8,0.,4.8
1979-08-05 09:05:45.700 ,6,0,,0,0.,4.8,0.,4.8,,0,0.,4.8,0.,4.8
1979-08-05 09:05:50.500 ,6,0,,0,4.,4.8,0.,4.8,,0,0.,4.8,0.,4.8
1979-08-05 09:05:55.300 ,6,0,,0,7.,4.8,0.,4.8,,0,0.,4.8,0.,4.8
1979-08-05 09:06:00.100 ,6,0,,0,2.,4.8,0.,4.8,,0,0.,4.8,0.,4.8
1979-08-05 09:06:04.900 ,6,0,,0,3.,4.8,0.,4.8,,0,0.,4.8,0.,4.8
1979-08-05 09:06:09.700 ,6,0,,0,2.,4.8,0.,4.8,,0,0.,4.8,0.,4.8
1979-08-05 09:06:14.500 ,6,0,,0,0.,4.8,0.,4.8,,0,0.,4.8,0.,4.8
1979-08-05 09:06:19.300 ,6,0,,0,0.,4.8,0.,4.8,,0,7.,4.8,2097152.,4.8
1979-08-05 09:06:24.100 ,7,0,,0,0.,4.8,1572864.,4.8,,0,0.,4.8,6016.,4.8
1979-08-05 09:06:28.900 ,7,0,,0,,0,,0,,0,,0,,0
1979-08-05 09:06:33.700 ,7,0,,0,,0,,0,,0,,0,,0
1979-08-05 09:06:38.500 ,7,0,,0,10.,4.8,0.,4.8,,0,0.,4.8,0.,4.8
1979-08-05 09:06:43.300 ,7,0,,0,8.,4.8,0.,4.8,,0,0.,4.8,0.,4.8
1979-08-05 09:06:48.100 ,7,0,,0,17.,4.8,0.,4.8,,0,0.,4.8,0.,4.8
1979-08-05 09:06:52.900 ,7,0,,0,10.,4.8,0.,4.8,,0,0.,4.8,0.,4.8
1979-08-05 09:06:57.700 ,7,0,,0,7.,4.8,0.,4.8,,0,0.,4.8,0.,4.8
1979-08-05 09:07:02.500 ,7,0,,0,0.,4.8,0.,4.8,,0,0.,4.8,0.,4.8
1979-08-05 09:07:07.300 ,7,0,,0,0.,4.8,0.,4.8,,0,0.,4.8,0.,4.8
1979-08-05 09:07:12.100 ,3,1,,0,0.,4.8,0.,4.8,,0,0.,4.8,0.,4.8
1979-08-05 09:07:16.900 ,3,1,,0,0.,4.8,1.,4.8,,0,1.,4.8,0.,4.8
1979-08-05 09:07:21.700 ,3,1,,0,0.,4.8,0.,4.8,,0,0.,4.8,0.,4.8
1979-08-05 09:07:26.500 ,3,1,,0,4.,4.8,0.,4.8,,0,0.,4.8,0.,4.8
1979-08-05 09:07:31.300 ,3,1,,0,6.,4.8,0.,4.8,,0,1.,4.8,0.,4.8
1979-08-05 09:07:36.100 ,0,1,,0,4.,4.8,1.,4.8,,0,0.,4.8,0.,4.8
1979-08-05 09:07:40.900 ,0,1,,0,5.,4.8,0.,4.8,,0,0.,4.8,2.,4.8
1979-08-05 09:07:45.700 ,0,1,,0,8.,4.8,1.,4.8,,0,0.,4.8,0.,4.8
1979-08-05 09:07:50.500 ,0,1,,0,0.,4.8,0.,4.8,,0,0.,4.8,2.,4.8
1979-08-05 09:07:55.300 ,0,1,,0,0.,4.8,0.,4.8,,0,0.,4.8,1.,4.8
1979-08-05 09:08:00.100 ,4,1,,0,0.,4.8,0.,4.8,,0,0.,4.8,2.,4.8
1979-08-05 09:08:04.900 ,4,1,,0,0.,4.8,0.,4.8,,0,0.,4.8,0.,4.8
1979-08-05 09:08:09.700 ,4,1,,0,0.,4.8,0.,4.8,,0,0.,4.8,0.,4.8
1979-08-05 09:08:14.500 ,4,1,,0,0.,4.8,0.,4.8,,0,0.,4.8,0.,4.8
1979-08-05 09:08:19.300 ,4,1,,0,3.,4.8,0.,4.8,,0,0.,4.8,0.,4.8
1979-08-05 09:08:24.100 ,7,1,,0,4.,4.8,0.,4.8,,0,0.,4.8,0.,4.8
1979-08-05 09:08:28.900 ,7,1,,0,3.,4.8,0.,4.8,,0,0.,4.8,0.,4.8
1979-08-05 09:08:33.700 ,7,1,,0,2.,4.8,0.,4.8,,0,0.,4.8,0.,4.8
1979-08-05 09:08:38.500 ,7,1,,0,0.,4.8,0.,4.8,,0,0.,4.8,0.,4.8
1979-08-05 09:08:43.300 ,7,1,,0,0.,4.8,0.,4.8,,0,0.,4.8,0.,4.8
1979-08-05 09:08:48.100 ,3,1,,0,1.,4.8,0.,4.8,,0,0.,4.8,0.,4.8
1979-08-05 09:08:52.900 ,3,1,,0,0.,4.8,0.,4.8,,0,0.,4.8,0.,4.8
1979-08-05 09:08:57.700 ,3,1,,0,2.,4.8,0.,4.8,,0,0.,4.8,0.,4.8
1979-08-05 09:09:02.500 ,3,1,,0,5.,4.8,0.,4.8,,0,0.,4.8,0.,4.8
1979-08-05 09:09:07.300 ,3,1,,0,4.,4.8,0.,4.8,,0,0.,4.8,0.,4.8
1979-08-05 09:09:12.100 ,0,1,,0,2.,4.8,0.,4.8,,0,0.,4.8,0.,4.8
1979-08-05 09:09:16.900 ,0,1,,0,2.,4.8,1.,4.8,,0,0.,4.8,0.,4.8
1979-08-05 09:09:21.700 ,0,1,,0,4.,4.8,1.,4.8,,0,0.,4.8,2.,4.8
1979-08-05 09:09:26.500 ,0,1,,0,0.,4.8,0.,4.8,,0,0.,4.8,2.,4.8
1979-08-05 09:09:31.300 ,0,1,,0,0.,4.8,0.,4.8,,0,0.,4.8,1.,4.8
1979-08-05 09:09:36.100 ,4,1,,0,0.,4.8,0.,4.8,,0,0.,4.8,1.,4.8
1979-08-05 09:09:40.900 ,4,1,,0,0.,4.8,0.,4.8,,0,0.,4.8,0.,4.8
1979-08-05 09:09:45.700 ,4,1,,0,1.,4.8,0.,4.8,,0,0.,4.8,0.,4.8
1979-08-05 09:09:50.500 ,4,1,,0,3.,4.8,0.,4.8,,0,0.,4.8,2.,4.8
1979-08-05 09:09:55.300 ,4,1,,0,4.,4.8,0.,4.8,,0,0.,4.8,0.,4.8
1979-08-05 09:10:00.100 ,7,1,,0,1.,4.8,0.,4.8,,0,0.,4.8,0.,4.8
1979-08-05 09:10:04.900 ,7,1,,0,6.,4.8,1.,4.8,,0,0.,4.8,0.,4.8
1979-08-05 09:10:09.700 ,7,1,,0,3.,4.8,0.,4.8,,0,0.,4.8,0.,4.8
1979-08-05 09:10:14.500 ,7,1,,0,0.,4.8,0.,4.8,,0,0.,4.8,0.,4.8
1979-08-05 09:10:19.300 ,7,1,,0,0.,4.8,0.,4.8,,0,0.,4.8,0.,4.8
1979-08-05 09:10:24.100 ,3,1,,0,0.,4.8,0.,4.8,,0,0.,4.8,0.,4.8
1979-08-05 09:10:28.900 ,3,1,,0,0.,4.8,0.,4.8,,0,1.,4.8,0.,4.8
1979-08-05 09:10:33.700 ,3,1,,0,0.,4.8,0.,4.8,,0,0.,4.8,0.,4.8
1979-08-05 09:10:38.500 ,3,1,,0,3.,4.8,0.,4.8,,0,0.,4.8,0.,4.8
1979-08-05 09:10:43.300 ,3,1,,0,1.,4.8,0.,4.8,,0,0.,4.8,0.,4.8
1979-08-05 09:10:48.100 ,0,1,,0,2.,4.8,0.,4.8,,0,0.,4.8,0.,4.8
1979-08-05 09:10:52.900 ,0,1,,0,4.,4.8,0.,4.8,,0,0.,4.8,0.,4.8
1979-08-05 09:10:57.700 ,0,1,,0,3.,4.8,0.,4.8,,0,0.,4.8,0.,4.8
1979-08-05 09:11:02.500 ,0,1,,0,0.,4.8,0.,4.8,,0,0.,4.8,1.,4.8
1979-08-05 09:11:07.300 ,0,1,,0,0.,4.8,0.,4.8,,0,0.,4.8,0.,4.8
1979-08-05 09:11:12.100 ,4,1,,0,0.,4.8,0.,4.8,,0,0.,4.8,0.,4.8
1979-08-05 09:11:16.900 ,4,1,,0,0.,4.8,0.,4.8,,0,0.,4.8,1.,4.8
1979-08-05 09:11:21.700 ,4,1,,0,0.,4.8,1.,4.8,,0,0.,4.8,0.,4.8
1979-08-05 09:11:26.500 ,4,1,,0,2.,4.8,0.,4.8,,0,0.,4.8,0.,4.8
1979-08-05 09:11:31.300 ,4,1,,0,2.,4.8,0.,4.8,,0,0.,4.8,0.,4.8
1979-08-05 09:11:36.100 ,7,1,,0,3.,4.8,0.,4.8,,0,0.,4.8,0.,4.8
1979-08-05 09:11:40.900 ,7,1,,0,6.,4.8,0.,4.8,,0,0.,4.8,0.,4.8
1979-08-05 09:11:45.700 ,7,1,,0,5.,4.8,0.,4.8,,0,0.,4.8,0.,4.8
1979-08-05 09:11:50.500 ,7,1,,0,0.,4.8,0.,4.8,,0,0.,4.8,0.,4.8
1979-08-05 09:11:55.300 ,7,1,,0,0.,4.8,0.,4.8,,0,0.,4.8,0.,4.8
1979-08-05 09:12:00.100 ,3,1,,0,0.,4.8,0.,4.8,,0,0.,4.8,0.,4.8
1979-08-05 09:12:04.900 ,3,1,,0,0.,4.8,0.,4.8,,0,0.,4.8,0.,4.8
1979-08-05 09:12:09.700 ,3,1,,0,1.,4.8,0.,4.8,,0,1.,4.8,0.,4.8
1979-08-05 09:12:14.500 ,3,1,,0,4.,4.8,0.,4.8,,0,0.,4.8,0.,4.8
1979-08-05 09:12:19.300 ,3,1,,0,2.,4.8,0.,4.8,,0,0.,4.8,1.,4.8
1979-08-05 09:12:24.100 ,0,1,,0,2.,4.8,0.,4.8,,0,0.,4.8,0.,4.8
1979-08-05 09:12:28.900 ,0,1,,0,1.,4.8,0.,4.8,,0,0.,4.8,1.,4.8
1979-08-05 09:12:33.700 ,0,1,,0,2.,4.8,1.,4.8,,0,0.,4.8,1.,4.8
1979-08-05 09:12:38.500 ,0,1,,0,0.,4.8,0.,4.8,,0,0.,4.8,0.,4.8
1979-08-05 09:12:43.300 ,0,1,,0,0.,4.8,0.,4.8,,0,0.,4.8,0.,4.8
1979-08-05 09:12:48.100 ,4,1,,0,0.,4.8,0.,4.8,,0,0.,4.8,0.,4.8
1979-08-05 09:12:52.900 ,4,1,,0,0.,4.8,1.,4.8,,0,0.,4.8,0.,4.8
1979-08-05 09:12:57.700 ,4,1,,0,1.,4.8,0.,4.8,,0,0.,4.8,0.,4.8
1979-08-05 09:13:02.500 ,4,1,,0,3.,4.8,0.,4.8,,0,0.,4.8,0.,4.8
1979-08-05 09:13:07.300 ,4,1,,0,1.,4.8,0.,4.8,,0,0.,4.8,0.,4.8
1979-08-05 09:13:12.100 ,7,1,,0,3.,4.8,0.,4.8,,0,0.,4.8,0.,4.8
1979-08-05 09:13:16.900 ,7,1,,0,2.,4.8,0.,4.8,,0,0.,4.8,0.,4.8
1979-08-05 09:13:21.700 ,7,1,,0,4.,4.8,0.,4.8,,0,0.,4.8,0.,4.8
1979-08-05 09:13:26.500 ,7,1,,0,1.,4.8,0.,4.8,,0,0.,4.8,0.,4.8
1979-08-05 09:13:31.300 ,7,1,,0,0.,4.8,0.,4.8,,0,0.,4.8,0.,4.8
1979-08-05 09:13:36.100 ,3,1,,0,0.,4.8,0.,4.8,,0,0.,4.8,0.,4.8
1979-08-05 09:13:40.900 ,3,1,,0,0.,4.8,0.,4.8,,0,0.,4.8,0.,4.8
1979-08-05 09:13:45.700 ,3,1,,0,1.,4.8,0.,4.8,,0,0.,4.8,0.,4.8
1979-08-05 09:13:50.500 ,3,1,,0,1.,4.8,0.,4.8,,0,0.,4.8,0.,4.8
1979-08-05 09:13:55.300 ,3,1,,0,4.,4.8,0.,4.8,,0,0.,4.8,0.,4.8
1979-08-05 09:14:00.100 ,0,1,,0,1.,4.8,0.,4.8,,0,0.,4.8,0.,4.8
1979-08-05 09:14:04.900 ,0,1,,0,4.,4.8,1.,4.8,,0,0.,4.8,0.,4.8
1979-08-05 09:14:09.700 ,0,1,,0,3.,4.8,0.,4.8,,0,0.,4.8,0.,4.8
1979-08-05 09:14:14.500 ,0,1,,0,0.,4.8,0.,4.8,,0,0.,4.8,0.,4.8
1979-08-05 09:14:19.300 ,0,1,,0,0.,4.8,0.,4.8,,0,0.,4.8,1.,4.8
1979-08-05 09:14:24.100 ,4,1,,0,0.,4.8,0.,4.8,,0,0.,4.8,0.,4.8
1979-08-05 09:14:28.900 ,4,1,,0,0.,4.8,0.,4.8,,0,0.,4.8,0.,4.8
1979-08-05 09:14:33.700 ,4,1,,0,0.,4.8,0.,4.8,,0,0.,4.8,1.,4.8
1979-08-05 09:14:38.500 ,4,1,,0,1.,4.8,0.,4.8,,0,0.,4.8,1.,4.8
1979-08-05 09:14:43.300 ,4,1,,0,3.,4.8,0.,4.8,,0,0.,4.8,0.,4.8
1979-08-05 09:14:48.100 ,7,1,,0,5.,4.8,0.,4.8,,0,1.,4.8,1.,4.8
1979-08-05 09:14:52.900 ,7,1,,0,3.,4.8,1.,4.8,,0,0.,4.8,0.,4.8
1979-08-05 09:14:57.700 ,7,1,,0,3.,4.8,0.,4.8,,0,0.,4.8,0.,4.8
1979-08-05 09:15:02.500 ,7,1,,0,0.,4.8,0.,4.8,,0,0.,4.8,0.,4.8
1979-08-05 09:15:07.300 ,7,1,,0,0.,4.8,1.,4.8,,0,0.,4.8,0.,4.8
1979-08-05 09:15:12.100 ,3,1,,0,0.,4.8,0.,4.8,,0,0.,4.8,0.,4.8
1979-08-05 09:15:16.900 ,3,1,,0,0.,4.8,0.,4.8,,0,0.,4.8,0.,4.8
1979-08-05 09:15:21.700 ,3,1,,0,0.,4.8,0.,4.8,,0,0.,4.8,1.,4.8
1979-08-05 09:15:26.500 ,3,1,,0,2.,4.8,0.,4.8,,0,0.,4.8,1.,4.8
1979-08-05 09:15:31.300 ,3,1,,0,1.,4.8,0.,4.8,,0,0.,4.8,0.,4.8
1979-08-05 09:15:36.100 ,0,1,,0,4.,4.8,0.,4.8,,0,0.,4.8,1.,4.8
1979-08-05 09:15:40.900 ,0,1,,0,3.,4.8,1.,4.8,,0,0.,4.8,2.,4.8
1979-08-05 09:15:45.700 ,0,1,,0,0.,4.8,0.,4.8,,0,0.,4.8,0.,4.8
1979-08-05 09:15:50.500 ,0,1,,0,0.,4.8,0.,4.8,,0,1.,4.8,0.,4.8
1979-08-05 09:15:55.300 ,0,1,,0,0.,4.8,0.,4.8,,0,0.,4.8,0.,4.8
1979-08-05 09:16:00.100 ,4,1,,0,0.,4.8,0.,4.8,,0,0.,4.8,0.,4.8
1979-08-05 09:16:04.900 ,4,1,,0,0.,4.8,0.,4.8,,0,0.,4.8,1.,4.8
1979-08-05 09:16:09.700 ,4,1,,0,0.,4.8,1.,4.8,,0,0.,4.8,0.,4.8
1979-08-05 09:16:14.500 ,4,1,,0,2.,4.8,0.,4.8,,0,0.,4.8,0.,4.8
1979-08-05 09:16:19.300 ,4,1,,0,2.,4.8,0.,4.8,,0,0.,4.8,0.,4.8
1979-08-05 09:16:24.100 ,7,1,,0,2.,4.8,0.,4.8,,0,0.,4.8,0.,4.8
1979-08-05 09:16:28.900 ,7,1,,0,5.,4.8,0.,4.8,,0,0.,4.8,0.,4.8
1979-08-05 09:16:33.700 ,7,1,,0,5.,4.8,0.,4.8,,0,0.,4.8,0.,4.8
1979-08-05 09:16:38.500 ,7,1,,0,0.,4.8,0.,4.8,,0,0.,4.8,0.,4.8
1979-08-05 09:16:43.300 ,7,1,,0,0.,4.8,0.,4.8,,0,0.,4.8,0.,4.8
1979-08-05 09:16:48.100 ,3,1,,0,0.,4.8,0.,4.8,,0,0.,4.8,0.,4.8
1979-08-05 09:16:52.900 ,3,1,,0,0.,4.8,0.,4.8,,0,0.,4.8,0.,4.8
1979-08-05 09:16:57.700 ,3,1,,0,1.,4.8,0.,4.8,,0,0.,4.8,0.,4.8
1979-08-05 09:17:02.500 ,3,1,,0,3.,4.8,0.,4.8,,0,0.,4.8,0.,4.8
1979-08-05 09:17:07.300 ,3,1,,0,2.,4.8,0.,4.8,,0,0.,4.8,1.,4.8
1979-08-05 09:17:12.100 ,0,1,,0,1.,4.8,0.,4.8,,0,0.,4.8,0.,4.8
1979-08-05 09:17:16.900 ,0,1,,0,2.,4.8,0.,4.8,,0,0.,4.8,1.,4.8
1979-08-05 09:17:21.700 ,0,1,,0,2.,4.8,0.,4.8,,0,0.,4.8,0.,4.8
1979-08-05 09:17:26.500 ,0,1,,0,0.,4.8,0.,4.8,,0,0.,4.8,1.,4.8
1979-08-05 09:17:31.300 ,0,1,,0,0.,4.8,0.,4.8,,0,0.,4.8,0.,4.8
1979-08-05 09:17:36.100 ,0,0,,0,0.,4.8,0.,4.8,,0,0.,4.8,1.,4.8
1979-08-05 09:17:40.900 ,0,0,,0,0.,4.8,0.,4.8,,0,0.,4.8,0.,4.8
1979-08-05 09:17:45.700 ,0,0,,0,0.,4.8,0.,4.8,,0,0.,4.8,0.,4.8
1979-08-05 09:17:50.500 ,0,0,,0,2.,4.8,0.,4.8,,0,0.,4.8,0.,4.8
1979-08-05 09:17:55.300 ,0,0,,0,3.,4.8,0.,4.8,,0,0.,4.8,0.,4.8
1979-08-05 09:18:00.100 ,0,0,,0,1.,4.8,0.,4.8,,0,0.,4.8,0.,4.8
1979-08-05 09:18:04.900 ,0,0,,0,2.,4.8,0.,4.8,,0,0.,4.8,1.,4.8
1979-08-05 09:18:09.700 ,0,0,,0,0.,4.8,0.,4.8,,0,0.,4.8,0.,4.8
1979-08-05 09:18:14.500 ,0,0,,0,0.,4.8,0.,4.8,,0,0.,4.8,0.,4.8
1979-08-05 09:18:19.300 ,0,0,,0,0.,4.8,0.,4.8,,0,0.,4.8,0.,4.8
1979-08-05 09:18:24.100 ,5,0,,0,0.,4.8,0.,4.8,,0,0.,4.8,0.,4.8
1979-08-05 09:18:28.900 ,5,0,,0,0.,4.8,0.,4.8,,0,0.,4.8,0.,4.8
1979-08-05 09:18:33.700 ,5,0,,0,0.,4.8,0.,4.8,,0,0.,4.8,0.,4.8
1979-08-05 09:18:38.500 ,5,0,,0,4.,4.8,0.,4.8,,0,0.,4.8,0.,4.8
1979-08-05 09:18:43.300 ,5,0,,0,4.,4.8,0.,4.8,,0,0.,4.8,0.,4.8
1979-08-05 09:18:48.100 ,5,0,,0,1.,4.8,0.,4.8,,0,0.,4.8,0.,4.8
1979-08-05 09:18:52.900 ,5,0,,0,4.,4.8,0.,4.8,,0,0.,4.8,1.,4.8
1979-08-05 09:18:57.700 ,5,0,,0,6.,4.8,0.,4.8,,0,0.,4.8,0.,4.8
1979-08-05 09:19:02.500 ,5,0,,0,0.,4.8,0.,4.8,,0,0.,4.8,0.,4.8
1979-08-05 09:19:07.300 ,5,0,,0,0.,4.8,1.,4.8,,0,1.,4.8,0.,4.8
1979-08-05 09:19:12.100 ,4,0,,0,0.,4.8,0.,4.8,,0,0.,4.8,0.,4.8
1979-08-05 09:19:16.900 ,4,0,,0,0.,4.8,0.,4.8,,0,0.,4.8,0.,4.8
1979-08-05 09:19:21.700 ,4,0,,0,0.,4.8,0.,4.8,,0,0.,4.8,0.,4.8
1979-08-05 09:19:26.500 ,4,0,,0,1.,4.8,0.,4.8,,0,0.,4.8,0.,4.8
1979-08-05 09:19:31.300 ,4,0,,0,2.,4.8,0.,4.8,,0,0.,4.8,0.,4.8
1979-08-05 09:19:36.100 ,4,0,,0,4.,4.8,0.,4.8,,0,0.,4.8,0.,4.8
1979-08-05 09:19:40.900 ,4,0,,0,4.,4.8,0.,4.8,,0,0.,4.8,0.,4.8
1979-08-05 09:19:45.700 ,4,0,,0,4.,4.8,0.,4.8,,0,0.,4.8,0.,4.8
1979-08-05 09:19:50.500 ,4,0,,0,0.,4.8,0.,4.8,,0,0.,4.8,2.,4.8
1979-08-05 09:19:55.300 ,4,0,,0,0.,4.8,0.,4.8,,0,0.,4.8,0.,4.8
1979-08-05 09:20:00.100 ,3,0,,0,1.,4.8,0.,4.8,,0,0.,4.8,0.,4.8
1979-08-05 09:20:04.900 ,3,0,,0,0.,4.8,0.,4.8,,0,0.,4.8,0.,4.8
1979-08-05 09:20:09.700 ,3,0,,0,0.,4.8,0.,4.8,,0,0.,4.8,0.,4.8
1979-08-05 09:20:14.500 ,3,0,,0,1.,4.8,0.,4.8,,0,0.,4.8,0.,4.8
1979-08-05 09:20:19.300 ,3,0,,0,4.,4.8,0.,4.8,,0,0.,4.8,0.,4.8
1979-08-05 09:20:24.100 ,3,0,,0,1.,4.8,0.,4.8,,0,0.,4.8,1.,4.8
1979-08-05 09:20:28.900 ,3,0,,0,1.,4.8,0.,4.8,,0,0.,4.8,0.,4.8
1979-08-05 09:20:33.700 ,3,0,,0,0.,4.8,0.,4.8,,0,1.,4.8,0.,4.8
1979-08-05 09:20:38.500 ,3,0,,0,0.,4.8,0.,4.8,,0,0.,4.8,0.,4.8
1979-08-05 09:20:43.300 ,3,0,,0,0.,4.8,0.,4.8,,0,0.,4.8,1.,4.8
1979-08-05 09:20:48.100 ,2,0,,0,0.,4.8,0.,4.8,,0,0.,4.8,0.,4.8
1979-08-05 09:20:52.900 ,2,0,,0,0.,4.8,0.,4.8,,0,0.,4.8,0.,4.8
1979-08-05 09:20:57.700 ,2,0,,0,0.,4.8,0.,4.8,,0,0.,4.8,0.,4.8
1979-08-05 09:21:02.500 ,2,0,,0,2.,4.8,0.,4.8,,0,0.,4.8,0.,4.8
1979-08-05 09:21:07.300 ,2,0,,0,3.,4.8,0.,4.8,,0,0.,4.8,0.,4.8
1979-08-05 09:21:12.100 ,2,0,,0,2.,4.8,0.,4.8,,0,0.,4.8,0.,4.8
1979-08-05 09:21:16.900 ,2,0,,0,2.,4.8,0.,4.8,,0,0.,4.8,0.,4.8
1979-08-05 09:21:21.700 ,2,0,,0,2.,4.8,0.,4.8,,0,0.,4.8,0.,4.8
1979-08-05 09:21:26.500 ,2,0,,0,0.,4.8,0.,4.8,,0,0.,4.8,1.,4.8
1979-08-05 09:21:31.300 ,2,0,,0,0.,4.8,0.,4.8,,0,0.,4.8,0.,4.8
1979-08-05 09:21:36.100 ,1,0,,0,0.,4.8,0.,4.8,,0,0.,4.8,0.,4.8
1979-08-05 09:21:40.900 ,1,0,,0,0.,4.8,0.,4.8,,0,0.,4.8,0.,4.8
1979-08-05 09:21:45.700 ,1,0,,0,0.,4.8,0.,4.8,,0,0.,4.8,0.,4.8
1979-08-05 09:21:50.500 ,1,0,,0,3.,4.8,1.,4.8,,0,0.,4.8,0.,4.8
1979-08-05 09:21:55.300 ,1,0,,0,5.,4.8,0.,4.8,,0,0.,4.8,0.,4.8
1979-08-05 09:22:00.100 ,1,0,,0,3.,4.8,0.,4.8,,0,0.,4.8,0.,4.8
1979-08-05 09:22:04.900 ,1,0,,0,4.,4.8,1.,4.8,,0,0.,4.8,1.,4.8
1979-08-05 09:22:09.700 ,1,0,,0,3.,4.8,0.,4.8,,0,0.,4.8,0.,4.8
1979-08-05 09:22:14.500 ,1,0,,0,0.,4.8,0.,4.8,,0,0.,4.8,0.,4.8
1979-08-05 09:22:19.300 ,1,0,,0,0.,4.8,0.,4.8,,0,0.,4.8,0.,4.8
1979-08-05 09:22:24.100 ,0,0,,0,0.,4.8,0.,4.8,,0,0.,4.8,1.,4.8
1979-08-05 09:22:28.900 ,0,0,,0,0.,4.8,0.,4.8,,0,0.,4.8,0.,4.8
1979-08-05 09:22:33.700 ,0,0,,0,0.,4.8,0.,4.8,,0,0.,4.8,0.,4.8
1979-08-05 09:22:38.500 ,0,0,,0,2.,4.8,0.,4.8,,0,0.,4.8,0.,4.8
1979-08-05 09:22:43.300 ,0,0,,0,0.,4.8,0.,4.8,,0,0.,4.8,0.,4.8
1979-08-05 09:22:48.100 ,0,0,,0,2.,4.8,0.,4.8,,0,0.,4.8,0.,4.8
1979-08-05 09:22:52.900 ,0,0,,0,2.,4.8,0.,4.8,,0,0.,4.8,0.,4.8
1979-08-05 09:22:57.700 ,0,0,,0,3.,4.8,0.,4.8,,0,0.,4.8,0.,4.8
1979-08-05 09:23:02.500 ,0,0,,0,0.,4.8,0.,4.8,,0,0.,4.8,0.,4.8
1979-08-05 09:23:07.300 ,0,0,,0,0.,4.8,0.,4.8,,0,0.,4.8,0.,4.8
1979-08-05 09:23:12.100 ,0,0,,0,0.,4.8,0.,4.8,,0,0.,4.8,0.,4.8
1979-08-05 09:23:16.900 ,0,0,,0,0.,4.8,0.,4.8,,0,0.,4.8,0.,4.8
1979-08-05 09:23:21.700 ,0,0,,0,0.,4.8,0.,4.8,,0,0.,4.8,0.,4.8
1979-08-05 09:23:26.500 ,0,0,,0,0.,4.8,0.,4.8,,0,0.,4.8,0.,4.8
1979-08-05 09:23:31.300 ,0,0,,0,3.,4.8,1.,4.8,,0,0.,4.8,0.,4.8
1979-08-05 09:23:36.100 ,0,0,,0,1.,4.8,0.,4.8,,0,0.,4.8,0.,4.8
1979-08-05 09:23:40.900 ,0,0,,0,2.,4.8,0.,4.8,,0,0.,4.8,0.,4.8
1979-08-05 09:23:45.700 ,0,0,,0,0.,4.8,0.,4.8,,0,0.,4.8,0.,4.8
1979-08-05 09:23:50.500 ,0,0,,0,0.,4.8,0.,4.8,,0,0.,4.8,1.,4.8
1979-08-05 09:23:55.300 ,0,0,,0,0.,4.8,0.,4.8,,0,0.,4.8,0.,4.8
1979-08-05 09:24:00.100 ,1,0,,0,0.,4.8,0.,4.8,,0,0.,4.8,0.,4.8
1979-08-05 09:24:04.900 ,1,0,,0,0.,4.8,0.,4.8,,0,1.,4.8,1.,4.8
1979-08-05 09:24:09.700 ,1,0,,0,0.,4.8,0.,4.8,,0,0.,4.8,0.,4.8
1979-08-05 09:24:14.500 ,1,0,,0,6.,4.8,1.,4.8,,0,0.,4.8,0.,4.8
1979-08-05 09:24:19.300 ,1,0,,0,0.,4.8,0.,4.8,,0,0.,4.8,0.,4.8
1979-08-05 09:24:24.100 ,1,0,,0,2.,4.8,0.,4.8,,0,0.,4.8,0.,4.8
1979-08-05 09:24:28.900 ,1,0,,0,2.,4.8,0.,4.8,,0,0.,4.8,0.,4.8
1979-08-05 09:24:33.700 ,1,0,,0,3.,4.8,0.,4.8,,0,0.,4.8,0.,4.8
1979-08-05 09:24:38.500 ,1,0,,0,0.,4.8,0.,4.8,,0,0.,4.8,1.,4.8
1979-08-05 09:24:43.300 ,1,0,,0,0.,4.8,0.,4.8,,0,0.,4.8,0.,4.8
1979-08-05 09:24:48.100 ,2,0,,0,0.,4.8,0.,4.8,,0,0.,4.8,0.,4.8
1979-08-05 09:24:52.900 ,2,0,,0,0.,4.8,0.,4.8,,0,0.,4.8,0.,4.8
1979-08-05 09:24:57.700 ,2,0,,0,1.,4.8,0.,4.8,,0,0.,4.8,0.,4.8
1979-08-05 09:25:02.500 ,2,0,,0,6.,4.8,0.,4.8,,0,0.,4.8,0.,4.8
1979-08-05 09:25:07.300 ,2,0,,0,3.,4.8,0.,4.8,,0,0.,4.8,0.,4.8
1979-08-05 09:25:12.100 ,2,0,,0,1.,4.8,0.,4.8,,0,0.,4.8,1.,4.8
1979-08-05 09:25:16.900 ,2,0,,0,2.,4.8,0.,4.8,,0,0.,4.8,0.,4.8
1979-08-05 09:25:21.700 ,2,0,,0,2.,4.8,0.,4.8,,0,0.,4.8,0.,4.8
1979-08-05 09:25:26.500 ,2,0,,0,0.,4.8,0.,4.8,,0,0.,4.8,0.,4.8
1979-08-05 09:25:31.300 ,2,0,,0,0.,4.8,0.,4.8,,0,0.,4.8,0.,4.8
1979-08-05 09:25:36.100 ,3,0,,0,0.,4.8,0.,4.8,,0,0.,4.8,0.,4.8
1979-08-05 09:25:40.900 ,3,0,,0,0.,4.8,0.,4.8,,0,0.,4.8,0.,4.8
1979-08-05 09:25:45.700 ,3,0,,0,1.,4.8,0.,4.8,,0,0.,4.8,0.,4.8
1979-08-05 09:25:50.500 ,3,0,,0,1.,4.8,0.,4.8,,0,0.,4.8,0.,4.8
1979-08-05 09:25:55.300 ,3,0,,0,2.,4.8,0.,4.8,,0,0.,4.8,0.,4.8
1979-08-05 09:26:00.100 ,3,0,,0,3.,4.8,0.,4.8,,0,0.,4.8,0.,4.8
1979-08-05 09:26:04.900 ,3,0,,0,1.,4.8,0.,4.8,,0,0.,4.8,0.,4.8
1979-08-05 09:26:09.700 ,3,0,,0,1.,4.8,0.,4.8,,0,0.,4.8,0.,4.8
1979-08-05 09:26:14.500 ,3,0,,0,0.,4.8,0.,4.8,,0,0.,4.8,0.,4.8
1979-08-05 09:26:19.300 ,3,0,,0,0.,4.8,0.,4.8,,0,0.,4.8,0.,4.8
1979-08-05 09:26:24.100 ,4,0,,0,0.,4.8,0.,4.8,,0,0.,4.8,0.,4.8
1979-08-05 09:26:28.900 ,4,0,,0,0.,4.8,0.,4.8,,0,0.,4.8,1.,4.8
1979-08-05 09:26:33.700 ,4,0,,0,0.,4.8,0.,4.8,,0,0.,4.8,0.,4.8
1979-08-05 09:26:38.500 ,4,0,,0,1.,4.8,0.,4.8,,0,0.,4.8,0.,4.8
1979-08-05 09:26:43.300 ,4,0,,0,3.,4.8,0.,4.8,,0,0.,4.8,0.,4.8
1979-08-05 09:26:48.100 ,4,0,,0,3.,4.8,0.,4.8,,0,0.,4.8,1.,4.8
1979-08-05 09:26:52.900 ,4,0,,0,5.,4.8,0.,4.8,,0,0.,4.8,0.,4.8
1979-08-05 09:26:57.700 ,4,0,,0,2.,4.8,0.,4.8,,0,0.,4.8,0.,4.8
1979-08-05 09:27:02.500 ,4,0,,0,0.,4.8,1.,4.8,,0,0.,4.8,0.,4.8
1979-08-05 09:27:07.300 ,4,0,,0,0.,4.8,1.,4.8,,0,0.,4.8,0.,4.8
1979-08-05 09:27:12.100 ,5,0,,0,0.,4.8,0.,4.8,,0,0.,4.8,0.,4.8
1979-08-05 09:27:16.900 ,5,0,,0,0.,4.8,0.,4.8,,0,0.,4.8,0.,4.8
1979-08-05 09:27:21.700 ,5,0,,0,1.,4.8,0.,4.8,,0,0.,4.8,0.,4.8
1979-08-05 09:27:26.500 ,5,0,,0,6.,4.8,0.,4.8,,0,0.,4.8,0.,4.8
1979-08-05 09:27:31.300 ,5,0,,0,2.,4.8,0.,4.8,,0,0.,4.8,1.,4.8
1979-08-05 09:27:36.100 ,5,0,,0,0.,4.8,0.,4.8,,0,0.,4.8,0.,4.8
1979-08-05 09:27:40.900 ,5,0,,0,1.,4.8,0.,4.8,,0,0.,4.8,0.,4.8
1979-08-05 09:27:45.700 ,5,0,,0,5.,4.8,0.,4.8,,0,0.,4.8,0.,4.8
1979-08-05 09:27:50.500 ,5,0,,0,1.,4.8,0.,4.8,,0,0.,4.8,0.,4.8
1979-08-05 09:27:55.300 ,5,0,,0,0.,4.8,0.,4.8,,0,0.,4.8,0.,4.8
1979-08-05 09:28:00.100 ,6,0,,0,0.,4.8,0.,4.8,,0,0.,4.8,0.,4.8
1979-08-05 09:28:04.900 ,6,0,,0,0.,4.8,0.,4.8,,0,0.,4.8,0.,4.8
1979-08-05 09:28:09.700 ,6,0,,0,1.,4.8,0.,4.8,,0,0.,4.8,0.,4.8
1979-08-05 09:28:14.500 ,6,0,,0,1.,4.8,0.,4.8,,0,0.,4.8,0.,4.8
1979-08-05 09:28:19.300 ,6,0,,0,3.,4.8,0.,4.8,,0,0.,4.8,0.,4.8
1979-08-05 09:28:24.100 ,6,0,,0,2.,4.8,0.,4.8,,0,0.,4.8,0.,4.8
1979-08-05 09:28:28.900 ,6,0,,0,1.,4.8,0.,4.8,,0,0.,4.8,0.,4.8
1979-08-05 09:28:33.700 ,6,0,,0,5.,4.8,0.,4.8,,0,0.,4.8,0.,4.8
1979-08-05 09:28:38.500 ,6,0,,0,0.,4.8,0.,4.8,,0,0.,4.8,0.,4.8
1979-08-05 09:28:43.300 ,6,0,,0,0.,4.8,0.,4.8,,0,1.,4.8,0.,4.8
1979-08-05 09:28:48.100 ,7,0,,0,0.,4.8,0.,4.8,,0,0.,4.8,0.,4.8
1979-08-05 09:28:52.900 ,7,0,,0,0.,4.8,1.,4.8,,0,0.,4.8,0.,4.8
1979-08-05 09:28:57.700 ,7,0,,0,2.,4.8,0.,4.8,,0,0.,4.8,0.,4.8
1979-08-05 09:29:02.500 ,7,0,,0,10.,4.8,0.,4.8,,0,0.,4.8,0.,4.8
1979-08-05 09:29:07.300 ,7,0,,0,11.,4.8,0.,4.8,,0,0.,4.8,0.,4.8
1979-08-05 09:29:12.100 ,7,0,,0,11.,4.8,0.,4.8,,0,0.,4.8,0.,4.8
1979-08-05 09:29:16.900 ,7,0,,0,11.,4.8,0.,4.8,,0,0.,4.8,0.,4.8
1979-08-05 09:29:21.700 ,7,0,,0,10.,4.8,0.,4.8,,0,0.,4.8,0.,4.8
1979-08-05 09:29:26.500 ,7,0,,0,1.,4.8,0.,4.8,,0,0.,4.8,0.,4.8
1979-08-05 09:29:31.300 ,7,0,,0,0.,4.8,0.,4.8,,0,0.,4.8,0.,4.8
1979-08-05 09:29:36.100 ,7,0,,0,0.,4.8,0.,4.8,,0,0.,4.8,0.,4.8
1979-08-05 09:29:40.900 ,7,0,,0,0.,4.8,0.,4.8,,0,0.,4.8,0.,4.8
1979-08-05 09:29:45.700 ,7,0,,0,4.,4.8,0.,4.8,,0,0.,4.8,0.,4.8
1979-08-05 09:29:50.500 ,7,0,,0,11.,4.8,0.,4.8,,0,0.,4.8,0.,4.8
1979-08-05 09:29:55.300 ,7,0,,0,12.,4.8,0.,4.8,,0,0.,4.8,0.,4.8
1979-08-05 09:30:00.100 ,7,0,,0,6.,4.8,0.,4.8,,0,0.,4.8,0.,4.8
1979-08-05 09:30:04.900 ,7,0,,0,7.,4.8,0.,4.8,,0,0.,4.8,0.,4.8
1979-08-05 09:30:09.700 ,7,0,,0,10.,4.8,0.,4.8,,0,0.,4.8,0.,4.8